Regional Weather Roundup
Issued by NWS

Home | Current Version | Previous Version | Text Only | Print | Product List | Glossary Off
Versions: 1 2 3 4 5 6 7 8 9 10 11 12 13 14 15 16 17 18 19 20 21 22 23 24 25 26 27 28 29 30 31 32 33 34 35 36 37 38 39 40 41 42 43 44 45 46 47 48 49 50

000
ASUS43 KDTX 221201
RWRMI
MICHIGAN HOURLY REGIONAL WEATHER ROUNDUP
NATIONAL WEATHER SERVICE DETROIT/PONTIAC MI
800 AM EDT WED MAR 22 2017

NOTE: "FAIR" INDICATES FEW OR NO CLOUDS BELOW 12,000 FEET WITH NO
SIGNIFICANT WEATHER AND/OR OBSTRUCTION TO VISIBILITY.

MIZ047>049-052>055-059>063-066>070-074>076-081>083-221300-
SOUTHEAST LOWER MICHIGAN

CITY           SKY/WX    TMP DP  RH WIND       PRES   REMARKS
ADRIAN         CLEAR     20  10  65 NE13      30.49R WCI   7
6HR MIN TEMP:  20; 6HR MAX TEMP:  25;

ALMA           PTCLDY    20  10  65 N5        30.53R WCI  13
ANN ARBOR      CLEAR     20   9  62 NW9       30.48R WCI   9
BAD AXE        CLOUDY    21   7  55 N15G21    30.49R WCI   7
6HR MIN TEMP:  21; 6HR MAX TEMP:  22;

CARO           MOCLDY    21   9  61 N8        30.51R WCI  11
DETROIT CITY   CLEAR     22  10  60 N7        30.49R WCI  13
6HR MIN TEMP:  21; 6HR MAX TEMP:  25;

DETROIT        CLEAR     22  10  60 N7        30.49R WCI  13
6HR MIN TEMP:  22; 6HR MAX TEMP:  27;

FLINT          PTCLDY    19   8  62 N7        30.50R WCI  10
6HR MIN TEMP:  19; 6HR MAX TEMP:  22;

GROSSE ILE     CLEAR     22  10  60 N10       30.47R WCI  11
6HR MIN TEMP:  22; 6HR MAX TEMP:  26;

HILLSDALE      CLEAR     18   9  68 N7        30.46R WCI   8
HOWELL         PTCLDY    19   8  62 N5        30.48R WCI  13
6HR MIN TEMP:  19; 6HR MAX TEMP:  22;


CITY           SKY/WX    TMP DP  RH WIND       PRES   REMARKS
JACKSON        CLEAR     18   9  68 N6        30.48R WCI  10
6HR MIN TEMP:  18; 6HR MAX TEMP:  23;

LAMBERTVILLE   CLEAR     22  10  60 N7        30.48R WCI  14
6HR MIN TEMP:  22; 6HR MAX TEMP:  28;

LANSING        CLEAR     17   9  70 N6        30.52R WCI   9
6HR MIN TEMP:  17; 6HR MAX TEMP:  22;

LAPEER         MOCLDY    21  10  64 N6        30.48R WCI  13
6HR MIN TEMP:  20; 6HR MAX TEMP:  22;

MASON          CLEAR     19  12  74 N6        30.50R WCI  11
MONROE         CLEAR     22  13  69 N10       30.47R WCI  11
MT. CLEMENS    PTCLDY    21  11  66 NW10      30.46R WCI  10
6HR MIN TEMP:  21; 6HR MAX TEMP:  24;

PONTIAC        PTCLDY    19  12  74 NW10      30.46R WCI   7
6HR MIN TEMP:  19; 6HR MAX TEMP:  22;

PORT HOPE        N/A     21  10  62 N17G30    30.49R WCI   7
6HR MIN TEMP:  21; 6HR MAX TEMP:  26;

PORT HURON     CLOUDY    23   9  54 N10G16    30.46R WCI  12
TRI CITIES     PTCLDY    20   9  62 N12       30.54R WCI   8
6HR MIN TEMP:  20; 6HR MAX TEMP:  22;

MIDLAND        FAIR      20   7  57 N5        30.53R WCI  13
6HR MIN TEMP:  19; 6HR MAX TEMP:  22;

TROY           PTCLDY    22   9  57 NW9       30.50R WCI  11
SAGINAW HB     CLEAR     21   9  58 NW9       30.52R WCI  11
$$
MIZ043>046-050>051-056>058-064>065-071>073-077>080-221300-
SOUTHWEST LOWER MICHIGAN

CITY           SKY/WX    TMP DP  RH WIND       PRES   REMARKS
BATTLE CREEK   CLEAR     18  10  71 N6        30.51R WCI  10
6HR MIN TEMP:  18; 6HR MAX TEMP:  24;

BENTON HARBOR    N/A     21   9  59 NE6       30.52S WCI  13
6HR MIN TEMP:  21; 6HR MAX TEMP:  29;

BIG RAPIDS     CLEAR     20   8  62 N5        30.50S WCI  13
6HR MIN TEMP:  19; 6HR MAX TEMP:  22;

COLDWATER      CLEAR     20   9  63 N8        30.50R WCI  10
6HR MIN TEMP:  20; 6HR MAX TEMP:  26;

FREMONT        FAIR      19   8  60 CALM      30.53R
HOLLAND        CLEAR     21  10  62 N6        30.53R WCI  13
6HR MIN TEMP:  21; 6HR MAX TEMP:  25;

GRAND RAPIDS   PTCLDY    19   8  62 N6        30.53R WCI  11
6HR MIN TEMP:  18; 6HR MAX TEMP:  23;

IONIA          FAIR      18  10  69 N3        30.52R
6HR MIN TEMP:  17; 6HR MAX TEMP:  21;

KALAMAZOO      MOCLDY    17   8  67 N6        30.51R WCI   9
6HR MIN TEMP:  16; 6HR MAX TEMP:  25;

LUDINGTON      CLOUDY    22  10  59 NE6       30.54R WCI  14
6HR MIN TEMP:  22; 6HR MAX TEMP:  25;

MARSHALL       CLEAR     19   9  65 CALM      30.49R
6HR MIN TEMP:  19; 6HR MAX TEMP:  24;

MOUNT PLEASANT CLEAR     20   8  59 N7        30.53R WCI  11
6HR MIN TEMP:  20; 6HR MAX TEMP:  22;

MUSKEGON       PTCLDY    20   9  62 N6        30.54S WCI  12
6HR MIN TEMP:  20; 6HR MAX TEMP:  24;

SOUTH HAVEN    CLEAR     18  11  73 CALM      30.53R
$$
MIZ016>042-221300-
NORTHERN LOWER MICHIGAN

CITY           SKY/WX    TMP DP  RH WIND       PRES   REMARKS
ALPENA         CLEAR     15   4  61 N8        30.54R WCI   4
6HR MIN TEMP:  15; 6HR MAX TEMP:  22;

BEAVER ISLAND  MOCLDY    17   7  63 N8        30.57R WCI   7
6HR MIN TEMP:  16; 6HR MAX TEMP:  22;

BELLAIRE       MOCLDY    17   4  56 NE7       30.57R WCI   8
6HR MIN TEMP:  17; 6HR MAX TEMP:  23;

CADILLAC       CLEAR     16   6  65 NE3       30.47S
CHARLEVOIX     MOCLDY    17   5  59 NE9       30.60R WCI   6
6HR MIN TEMP:  17; 6HR MAX TEMP:  24;

FRANKFORT      MOCLDY    22   9  58 NE7       30.55R WCI  14
GAYLORD        CLEAR     14   0  53 N3        30.50R
6HR MIN TEMP:  14; 6HR MAX TEMP:  21; 6HR PCP: TRACE;

GRAYLING       CLEAR     12   3  67 N5        30.52R WCI   4
HARBOR SPRINGS CLEAR     13   3  64 CALM      30.57R
HOUGHTON LAKE  CLEAR     14   3  61 NE5       30.52R WCI   6
6HR MIN TEMP:  14; 6HR MAX TEMP:  20;

MANISTEE       PTCLDY    22  10  60 N7        30.54R WCI  13
OSCODA         PTCLDY    17   4  56 NW9       30.53R WCI   6
6HR MIN TEMP:  17; 6HR MAX TEMP:  21;

PELLSTON       CLEAR     13   0  56 NW5       30.58R WCI   5
6HR MIN TEMP:  10; 6HR MAX TEMP:  21;

ROGERS CITY    CLEAR     17   4  56 N7        30.56R WCI   7
TRAVERSE CITY  MOCLDY    21   8  57 N10       30.54R WCI  10
6HR MIN TEMP:  21; 6HR MAX TEMP:  24; 6HR PCP: TRACE;

$$
MIZ007>008-015-221300-
EASTERN UPPER MICHIGAN

CITY           SKY/WX    TMP DP  RH WIND       PRES   REMARKS
KINROSS        PTCLDY    10  -2  58 N6        30.55R WCI   0
6HR MIN TEMP:  10; 6HR MAX TEMP:  15;

MACKINAC ISLAN CLEAR     13  -2  51 N9G16     30.55R WCI   1
6HR MIN TEMP:  13; 6HR MAX TEMP:  19;

NEWBERRY       CLEAR     13   6  73 CALM      30.55R
6HR MIN TEMP:  13; 6HR MAX TEMP:  18;

S. S. MARIE    PTCLDY    13  -3  49 N5        30.56R WCI   5
6HR MIN TEMP:  12; 6HR MAX TEMP:  17;

MUNISING         N/A     20   9  62 N8        30.57R WCI  10
6HR MIN TEMP:  20; 6HR MAX TEMP:  21;

$$
MIZ004>006-011>014-085-221300-
CENTRAL UPPER MICHIGAN

CITY           SKY/WX    TMP DP  RH WIND       PRES   REMARKS
MANISTIQUE     CLEAR      9   7  92 CALM      30.57R
MENOMINEE        N/A    N/A N/A N/A MISG        N/A
SAWYER-GWINN   MOCLDY    16   7  67 NW5       30.54R WCI   9
$$
MIZ001>003-009>011-084-221300-
WESTERN UPPER MICHIGAN

CITY           SKY/WX    TMP DP  RH WIND       PRES   REMARKS
IRON MOUNTAIN  CLEAR      7   1  76 CALM      30.55R
6HR MIN TEMP:   6; 6HR MAX TEMP:  14;

HOUGHTON       CLEAR      7   1  76 CALM      30.55S
6HR MIN TEMP:   6; 6HR MAX TEMP:  18;

COPPER HARBOR    N/A     20   7  57 NE7       30.58R WCI  11
6HR MIN TEMP:  20; 6HR MAX TEMP:  22;

IRONWOOD       CLEAR     10   7  87 CALM      30.56R
6HR MIN TEMP:   9; 6HR MAX TEMP:  21;

$$

ABBREVIATIONS USED IN REMARKS
   TC - TEMPERATURE IN CELSIUS
  WCI - WIND CHILL INDEX
   HX - HEAT INDEX
  VSB - VISIBILITY





USA.gov is the U.S. government's official web portal to all federal, state and local government web resources and services.